Regional Weather Roundup
Issued by NWS

Home | Current Version | Previous Version | Graphics & Text | Print | Product List | Glossary On
Versions: 1 2 3 4 5 6 7 8 9 10 11 12 13 14 15 16 17 18 19 20 21 22 23 24 25 26 27 28 29 30 31 32 33 34 35 36 37 38 39 40 41 42 43 44 45 46 47 48 49 50
000
ASUS45 KBOU 241110
RWRCO

WEATHER ROUNDUP FOR COLORADO
NATIONAL WEATHER SERVICE PUEBLO CO
500 AM MDT TUE APR 24 2018

NOTE: "FAIR" INDICATES FEW OR NO CLOUDS BELOW 12000 FEET WITH NO
SIGNIFICANT WEATHER AND/OR OBSTRUCTIONS TO VISIBILITY.

COZ001>005-013-030-031-241200-
...NORTHWEST COLORADO...

CITY           SKY/WX    TMP DP  RH WIND       PRES   REMARKS
CRAIG          CLEAR     29  27  92 SW9       30.29R WCI  20
HAYDEN         PTCLDY    31  28  89 W5        30.29R WCI  26
MEEKER         PTCLDY    36  29  75 N10       30.26R
RABBIT EARS PA NOT AVBL
STEAMBOAT SPGS FAIR      34  31  89 CALM      30.27R
WALDEN         CLOUDY    30  23  74 NW12      30.30R WCI  21
$$

COZ006>008-011-241200-
...WEST CENTRAL VALLEYS...

CITY           SKY/WX    TMP DP  RH WIND       PRES   REMARKS
GRAND JUNCTION MOCLDY    54  32  43 VRB3      30.12S
MONTROSE       PTCLDY    50  36  58 SE8       30.21F
EAGLE          MOCLDY    47  33  58 E5        30.22S
RIFLE          MOCLDY    47  31  53 NW8       30.18S
DELTA          NOT AVBL
NUCLA          FAIR      50  32  50 E10       30.20F
$$

COZ017>023-064>068-241200-
...SOUTHWEST COLORADO...

CITY           SKY/WX    TMP DP  RH WIND       PRES   REMARKS
DURANGO        CLEAR     35  14  42 E6        30.14R WCI  30
CORTEZ         CLEAR     39  21  48 E8        30.13S
PAGOSA SPRINGS FAIR      34  15  45 CALM      30.19S
TELLURIDE      PTCLDY    38  27  64 SE3       30.31S
WOLF CREEK PAS PTCLDY    34  12  40 SW6       30.42S WCI  29
$$

COZ009-010-012-014-032>034-037-058>063-241200-
...CENTRAL COLORADO...

CITY           SKY/WX    TMP DP  RH WIND       PRES   REMARKS
ASPEN          LGT RAIN  41  36  82 SE10      30.27S
BUENA VISTA    CLOUDY    42  32  67 NW13      30.26R
COPPER MTN     NOT AVBL
BERTHOUD PASS  CLOUDY    23  12  63 W7        30.35F WCI  15
COTTONWOOD PAS MOCLDY    43  32  65 W8G17     30.31S
GUNNISON       CLOUDY    41  31  67 SE7       30.27R
KREMMLING      CLOUDY    43  32  65 NW7       30.24S
LEADVILLE      LGT SNOW  31  30  96 SE3       30.30F FOG
MONARCH PASS   MOCLDY    28  23  80 W18       30.47S WCI  16
SALIDA         FAIR      44  29  57 W6        30.32R
SUNLIGHT       MOCLDY    28  27  93 S10       30.35F WCI  19
WILKERSON PASS FOG       30  30 100 N3        30.38S VSB 1/2
$$

COZ069>075-241200-
...SAN LUIS VALLEY/SANGRE DE CRISTO MOUNTAINS...

CITY           SKY/WX    TMP DP  RH WIND       PRES   REMARKS
ALAMOSA        PTCLDY    36  24  62 E7        30.19S
DEL NORTE      FAIR      37  18  47 W10       30.22R
LA VETA PASS   SNOW      32  32 100 NE17G26   30.44S VSB 1/4 WCI  21
SAGUACHE       NOT AVBL
$$

COZ035-036-038>040-241200-
...NORTHERN COLORADO FRONT RANGE...

CITY           SKY/WX    TMP DP  RH WIND       PRES   REMARKS
DENVER INTL AP LGT SNOW  33  31  92 NE13      30.35R FOG     WCI  24
DMNS CITY PARK NOT AVBL
AURORA         NOT AVBL
FRONT RANGE AP FLURRIES  34  33  96 N14       30.36R WCI  25
ERIE MUNI ARPT LGT SNOW  34  33  96 CALM      30.41S
BOULDER MUN AP LGT SNOW  32  32 100 CALM      30.35R
CENTENNIAL     FLURRIES  33  31  92 N12       30.35R WCI  24
BROOMFIELD     LGT SNOW  32  32 100 E5        30.35S WCI  27
LOVELAND       CLOUDY    35  33  92 NE9       30.35R WCI  28
LONGMONT       LGT SNOW  35  33  91 CALM      30.38R
$$

COZ041-046-047-076>085-087-088-241200-
...PIKES PEAK/PALMER DIVIDE AND SOUTHERN FOOTHILLS...

CITY           SKY/WX    TMP DP  RH WIND       PRES   REMARKS
COLO. SPRINGS  CLOUDY    38  31  76 N16G22    30.29R
A. F. ACADEMY  NOT AVBL
SCHRIEVER AFB  NOT AVBL
CHEYENNE MTN   NOT AVBL
ELLICOTT         N/A    N/A N/A N/A N26G38    30.26R
FALCON         CLOUDY    32  31  95 N21G32    30.28R WCI  20
FORT CARSON    CLOUDY    41  32  71 N22       30.26R
LIMON          CLOUDY    34  33  96 N25G36    30.29R WCI  21
MONUMENT HILL  FOG       28  28 100 N15G25    30.34R VSB 3/4 WCI  17
CANON CITY     MOCLDY    45  36  70 S18G29    30.24R
WALSENBURG     CLOUDY    43  36  75 N12       30.29R
TRINIDAD       CLOUDY    42  35  76 NW14G26   30.27R
$$

COZ042>045-048>051-090-091-241200-
...NORTHEAST COLORADO...

CITY           SKY/WX    TMP DP  RH WIND       PRES   REMARKS
GREELEY ARPT   LGT RAIN  34  32  92 N16       30.36R WCI  24
AKRON          CLOUDY    34  32  92 N22G31    30.30R WCI  22
BURLINGTON     CLOUDY    39  37  92 N20G30    30.26R
WRAY           DRIZZLE   37  36  93 NW20G28   30.29R
YUMA           NOT AVBL
STERLING       NOT AVBL
HOLYOKE        RAIN      39  36  87 NW17G26   30.29R
FORT MORGAN    CLOUDY    36  31  83 N20G29    30.33R
$$

COZ086-089-092>099-241200-
...SOUTHEAST COLORADO...

CITY           SKY/WX    TMP DP  RH WIND       PRES   REMARKS
PUEBLO         CLOUDY    46  32  58 N36G47    30.24R
LA JUNTA       CLOUDY    45  35  68 N26G41    30.19R
LAMAR          PTCLDY    49  41  74 NE13      30.14R
SPRINGFIELD      N/A     42  40  92 E10       30.10S
$$




USA.gov is the U.S. government's official web portal to all federal, state and local government web resources and services.